Theta_e
332 330 329 329 328 327 326 325 324 323 322 321 320 319 318 318 319 319 320 320 320 319 318 316 315 315 315 315 315 316 317 318 319 320 321 322 323 331 331 334 334 335 332
331 330 329 329 328 327 326 325 324 323 322 321 320 319 318 317 318 318 319 318 319 319 318 316 315 315 315 314 314 314 314 316 318 319 322 324 324 328 330 333 332 333 331
330 330 329 328 328 327 326 324 323 323 322 321 320 318 317 316 317 317 318 318 318 317 315 315 314 314 314 314 313 314 314 314 315 317 318 319 322 327 330 331 329 330 328
329 329 329 328 327 326 325 324 323 322 322 320 317 316 316 316 316 316 316 317 316 315 315 314 314 315 315 314 313 314 314 314 314 314 316 319 321 325 328 328 325 324 323
327 328 329 328 327 326 325 324 323 321 319 317 316 315 314 315 315 315 315 314 312 312 313 313 314 314 314 313 314 314 315 315 314 314 314 316 319 324 326 325 322 320 318
328 327 328 327 326 325 323 322 320 319 317 316 315 314 314 314 313 312 310 310 310 309 310 310 311 311 312 313 313 313 313 314 314 314 314 315 317 319 324 323 319 317 315
326 325 326 325 323 322 321 319 318 316 314 313 314 313 313 312 311 310 309 309 308 308 308 308 308 308 309 310 311 313 313 313 313 313 313 312 312 314 319 322 319 318 317
326 325 324 322 321 319 318 315 313 313 313 312 311 310 310 309 309 309 308 307 307 307 306 307 307 307 307 307 308 309 311 312 312 312 312 312 312 311 314 322 321 319 316
324 322 321 319 318 315 314 313 312 312 311 309 308 307 306 307 307 307 307 307 305 305 306 306 306 306 306 307 308 309 309 309 310 311 312 312 313 312 311 313 319 317 312
320 318 317 315 314 312 312 312 311 310 308 308 307 307 307 307 307 307 306 306 305 306 306 307 307 307 307 307 307 308 309 310 311 311 311 312 312 312 311 311 317 317 315
316 315 314 312 312 312 311 310 308 308 308 308 307 306 306 306 305 304 304 302 302 302 301 301 302 303 304 306 307 307 307 308 309 310 311 312 312 312 311 311 313 317 316
314 313 312 311 311 310 308 308 309 308 307 306 306 305 304 303 302 302 301 301 300 300 300 300 301 301 302 302 303 303 305 306 309 310 311 311 311 312 311 311 312 315 317
312 311 311 310 309 309 309 308 307 306 306 305 304 303 302 301 301 300 300 300 300 300 300 300 300 300 300 300 300 300 301 302 303 306 307 309 310 311 313 312 313 315 317
310 310 309 309 309 308 308 306 306 304 304 303 301 301 300 300 299 299 299 298 298 298 298 298 298 298 298 298 299 299 299 300 301 303 305 308 310 311 314 315 316 317 317
309 308 308 308 306 305 306 304 304 302 302 302 300 299 299 298 298 298 297 297 296 297 296 296 296 297 298 298 299 300 300 300 301 302 305 309 310 311 315 316 317 317 317
308 307 306 305 304 304 303 303 302 302 302 300 299 298 298 297 298 298 297 299 300 301 296 297 298 299 300 302 302 302 300 301 301 303 305 309 309 312 317 316 318 318 317
306 305 303 303 302 302 301 301 301 300 299 298 298 297 297 297 297 297 299 300 300 302 300 302 303 304 304 305 306 308 302 301 301 304 306 309 309 315 317 318 317 317 316
304 302 302 302 301 301 300 299 298 298 298 297 297 297 298 298 298 299 300 300 302 302 303 303 303 304 304 305 306 305 302 302 302 304 305 308 310 317 319 319 318 317 316
302 301 301 301 300 299 298 298 297 297 297 297 297 297 298 298 298 300 300 301 302 302 303 303 303 303 303 304 305 303 302 303 303 305 308 310 312 319 319 319 319 317 315
302 301 301 300 299 298 297 297 297 297 297 297 297 297 297 297 298 300 301 301 302 303 303 302 302 302 303 304 303 303 304 304 306 309 310 313 318 320 320 319 318 314 315
303 301 300 299 298 298 298 298 297 297 297 297 297 297 298 298 299 300 301 302 303 303 302 302 301 301 305 304 306 307 307 308 310 311 313 314 320 320 320 319 316 315 315
303 301 300 299 298 298 298 298 297 297 297 297 297 298 299 299 300 300 301 302 302 302 302 301 300 300 304 310 310 310 310 311 311 313 314 316 320 320 319 317 315 315 314
302 300 299 299 299 298 298 297 297 297 297 298 298 299 299 299 300 300 302 302 302 301 301 300 299 299 305 315 311 313 312 315 314 317 317 318 320 319 318 316 315 315 314
301 301 299 298 298 298 298 297 298 298 298 298 298 299 299 299 300 300 301 301 301 301 300 299 298 298 303 317 320 316 316 318 319 320 319 320 320 318 317 315 315 314 314
300 299 298 298 298 297 298 298 298 299 299 298 298 298 298 298 299 299 299 300 300 300 300 299 298 298 301 308 320 322 321 320 320 321 320 320 319 317 316 315 315 314 314
299 298 298 298 298 298 299 298 298 298 297 297 297 297 297 297 298 298 298 298 299 299 299 299 299 300 303 307 312 321 322 322 322 321 321 320 318 316 315 315 315 314 313
Wind_Speed
38 33 29 27 24 20 21 20 18 16 16 18 19 21 21 21 21 21 23 24 23 23 22 21 25 25 25 24 25 23 22 21 12 20 25 30 25 15 11 15 23 31 33
35 33 30 26 24 22 21 18 17 17 18 20 20 22 23 23 23 23 25 25 23 19 21 23 24 21 21 23 24 25 25 23 20 14 19 23 21 13 12 19 23 29 34
35 33 30 27 25 23 21 20 20 20 21 21 22 23 25 26 26 26 27 28 26 26 27 25 25 24 25 24 22 25 27 24 22 20 17 23 23 13 9 18 23 26 32
34 33 31 31 30 28 26 23 20 19 20 21 23 23 24 24 25 26 28 27 25 26 27 28 28 26 25 24 25 24 25 27 25 21 18 19 20 16 14 19 18 23 26
34 35 37 35 31 27 22 19 18 19 22 22 23 25 25 24 23 23 24 25 26 28 26 26 27 30 31 32 28 25 22 22 23 18 15 17 18 12 13 19 16 21 20
33 38 35 31 29 24 19 15 16 18 21 22 22 22 25 26 26 29 33 33 31 29 27 26 28 29 33 36 36 37 35 27 24 19 17 12 18 16 15 23 19 19 5
36 30 25 26 22 16 10 11 14 13 14 18 20 23 26 26 28 29 27 31 31 28 27 29 30 31 32 34 33 34 36 40 40 34 28 25 22 22 16 24 27 24 19
30 25 22 18 12 7 6 6 8 11 14 18 23 25 27 28 27 28 31 32 32 32 33 32 33 33 32 33 32 34 34 31 33 38 38 38 35 30 23 24 36 29 13
20 19 14 9 7 3 2 7 12 17 22 27 29 31 30 32 31 30 33 35 31 33 32 33 33 33 34 36 36 35 36 37 35 39 36 38 41 41 35 25 20 24 8
15 15 12 7 3 3 7 11 15 21 25 26 28 28 30 34 34 34 30 29 27 27 28 29 31 35 39 38 38 36 36 37 31 30 33 40 40 39 38 33 25 24 15
17 13 9 5 1 4 9 15 20 22 23 25 30 32 31 25 21 33 40 35 28 26 29 32 34 37 40 40 40 40 42 39 35 35 34 33 38 40 41 39 36 32 25
13 9 6 2 5 10 13 15 16 18 23 28 25 22 27 30 31 33 34 35 37 33 35 36 37 37 39 44 45 45 46 42 29 31 33 32 33 32 36 37 38 41 37
11 8 2 5 9 10 13 13 16 19 19 20 22 21 25 30 31 31 34 36 36 35 35 38 41 46 49 49 50 49 46 39 38 34 31 34 36 35 28 32 37 42 40
8 5 5 6 10 12 10 13 13 16 18 18 18 20 26 31 29 29 29 31 34 35 34 36 39 41 43 46 43 39 40 40 39 37 35 36 33 32 32 34 36 37 29
7 4 4 6 7 11 10 10 14 14 22 22 22 25 25 28 31 36 41 42 39 39 43 38 35 32 32 32 31 32 33 34 37 36 32 32 32 30 32 40 37 35 29
5 6 8 9 9 8 13 14 16 19 21 26 25 25 31 33 36 40 43 39 39 40 36 28 28 27 26 27 27 26 28 33 36 34 33 29 30 30 32 36 35 34 29
4 6 6 8 9 10 11 16 17 26 26 22 25 27 28 31 37 40 34 37 37 28 22 25 25 26 27 28 28 26 28 35 35 35 34 34 32 28 35 36 35 32 29
5 6 5 7 7 10 11 14 16 16 19 29 30 28 27 33 38 32 35 34 28 28 25 25 26 27 27 28 28 23 26 28 34 34 36 32 34 27 33 34 34 33 31
8 8 6 6 8 9 11 13 15 17 19 22 26 26 29 38 34 32 33 25 27 29 30 30 28 28 29 27 18 19 24 28 33 34 34 35 37 31 36 33 33 33 33
7 8 7 5 8 10 13 13 16 17 18 20 22 25 33 38 33 35 34 31 30 31 33 32 32 30 30 8 13 17 20 26 30 31 33 35 27 37 34 35 33 34 33
9 10 9 9 10 11 14 15 16 16 18 19 21 25 33 29 26 29 31 32 32 35 36 36 34 30 18 11 11 18 21 25 25 28 33 31 24 30 30 32 31 33 32
14 14 9 9 10 13 14 14 15 16 18 20 23 27 31 27 27 30 32 34 36 37 36 35 33 30 19 19 19 20 23 25 26 27 31 27 27 27 30 30 32 32 31
17 14 11 10 8 12 12 14 17 19 19 20 24 25 29 29 30 31 33 36 38 40 41 38 35 35 23 15 22 22 25 22 29 26 33 28 25 29 29 29 31 30 31
18 16 12 12 10 9 10 13 17 19 19 22 24 25 27 29 30 32 33 38 39 41 41 41 41 40 31 13 18 23 26 24 27 30 33 30 27 31 29 30 31 31 32
18 16 13 11 8 4 7 13 15 16 19 23 24 24 26 29 30 32 34 37 38 39 41 41 43 42 40 21 21 23 27 29 30 32 32 29 30 32 30 31 30 30 30
19 17 14 11 6 6 7 10 17 21 24 23 26 25 27 29 29 31 33 36 38 40 43 44 47 47 45 40 27 24 29 29 30 33 33 34 34 30 31 29 30 30 30
Wind_Direction
185 194 202 204 208 217 224 236 250 259 269 278 287 292 293 291 288 285 282 283 276 274 276 289 285 286 289 285 284 287 289 288 286 297 303 304 314 286 266 245 231 216 208
188 197 199 201 208 214 222 233 240 254 268 280 283 287 288 289 286 283 282 283 275 272 278 282 279 277 273 281 283 282 279 282 295 290 305 311 318 296 286 230 222 217 213
192 195 196 201 204 211 218 229 244 259 272 274 277 280 284 284 285 284 283 282 276 277 280 279 273 270 271 273 274 273 278 277 278 285 292 292 300 279 243 220 217 211 212
190 192 196 203 210 217 224 233 243 252 256 268 277 277 280 284 287 288 286 279 279 281 279 277 269 261 259 264 268 264 266 270 271 273 275 274 287 289 232 201 183 196 189
196 196 203 207 212 212 210 223 235 252 268 271 274 278 280 281 284 285 285 289 291 286 277 273 267 264 266 264 259 257 256 254 258 263 261 261 264 273 196 188 183 171 165
193 197 204 206 205 202 207 226 253 263 270 275 276 279 283 283 284 289 294 290 290 285 280 277 273 273 271 266 265 260 254 252 255 257 256 263 261 251 230 187 169 153 166
200 193 181 173 177 188 211 242 258 267 282 289 292 293 293 293 294 296 293 289 286 282 278 272 271 269 268 267 265 263 259 256 254 253 255 249 256 259 250 188 182 190 187
182 167 161 159 160 171 196 234 275 289 294 299 300 299 298 297 296 291 289 286 284 281 276 272 271 270 264 262 264 264 253 248 249 252 245 250 250 250 241 222 202 192 197
130 123 123 127 135 162 259 293 295 300 304 305 304 303 301 297 300 294 291 289 283 278 274 268 270 267 263 259 255 252 255 255 253 244 244 252 251 250 247 241 214 182 150
107 111 114 112 85 347 307 306 308 308 309 309 304 302 298 294 298 296 298 297 287 283 279 275 270 264 263 261 253 248 251 251 240 238 240 242 244 249 241 227 223 193 169
115 111 102 90 45 317 313 312 315 313 306 300 299 300 299 303 306 303 302 302 292 289 285 282 275 269 266 264 260 249 246 251 247 236 230 232 234 235 236 227 218 205 189
114 100 84 13 320 315 321 320 311 305 300 299 300 308 306 303 299 298 298 294 291 288 281 278 274 272 270 269 264 258 254 250 243 225 221 221 223 221 221 220 211 213 212
116 109 71 340 333 337 319 308 309 305 308 313 310 305 304 302 302 302 299 294 291 284 277 275 276 274 273 270 265 259 253 241 237 234 230 231 220 219 218 208 206 210 210
87 68 25 356 334 320 305 309 311 320 327 314 310 306 308 304 304 304 300 299 295 290 286 282 278 274 269 264 262 256 242 231 224 224 222 220 209 209 211 195 197 194 189
83 42 11 345 345 333 322 334 325 326 324 316 318 314 307 303 303 304 305 300 297 294 292 287 280 272 269 263 255 247 232 220 215 216 214 203 196 205 209 191 186 181 178
56 40 40 14 342 358 346 335 323 318 311 313 315 314 308 304 311 315 316 315 311 308 296 280 274 269 262 261 254 243 219 210 208 205 202 199 193 206 194 178 179 176 172
66 39 20 10 15 356 357 343 331 325 325 328 330 323 319 316 322 324 322 321 316 314 280 283 281 281 277 272 265 250 210 204 199 195 193 192 191 204 179 172 176 171 170
62 88 38 33 23 14 359 345 329 320 326 325 327 326 330 331 334 334 336 330 324 323 304 297 294 290 284 277 271 217 199 191 189 190 189 188 189 197 170 173 172 169 166
95 71 73 55 34 21 10 354 330 334 327 317 324 336 337 342 344 342 340 330 320 316 317 313 310 304 294 278 229 197 187 183 183 181 181 182 185 187 172 170 170 167 164
139 116 105 77 52 39 26 354 346 337 328 332 333 334 341 344 343 339 335 331 326 325 326 324 322 317 314 180 173 172 177 173 177 173 172 173 191 165 170 170 167 160 164
161 134 123 85 72 53 23 5 349 341 339 338 332 340 350 340 331 332 331 332 334 334 332 332 331 328 331 166 180 160 165 162 163 164 167 175 176 155 161 160 157 162 163
141 137 125 97 64 39 27 21 5 352 349 342 344 349 351 349 344 341 340 342 343 342 341 340 341 338 347 171 155 144 149 153 160 165 170 172 158 156 157 155 160 162 161
149 135 117 86 71 50 45 28 11 1 350 352 354 353 354 350 349 346 346 349 349 349 349 353 354 2 26 166 168 156 157 161 169 174 168 175 159 157 156 155 159 162 165
128 129 113 87 74 61 34 8 7 4 7 6 357 354 354 352 352 352 353 354 355 356 358 2 5 11 23 107 159 170 164 167 164 163 154 156 152 156 156 157 164 168 168
117 109 97 84 77 53 11 10 12 13 18 16 9 6 6 4 1 1 359 0 0 3 4 9 13 20 33 49 119 156 167 169 173 163 163 161 159 159 160 164 169 170 170
105 101 100 95 85 47 28 29 27 32 28 23 15 13 12 11 10 6 5 5 6 8 12 15 21 31 41 48 68 133 153 162 165 169 167 165 160 160 163 167 170 172 172